sat.trackr.live / text

‹ back to catalog

STARLINK-11238 [DTC]

NORAD 60928 · 2024-155E

PAYLOAD ACTIVE UNKNOWN

§ Identity

Operator
Country
US
Launch date
2024-08-31
Launch site
AFWTR
Launch vehicle
Mass (kg)
RCS (m²)

Purposes: comms

External: N2YO · Heavens-Above · Gunter

§ Orbital elements

Epoch: 2026-05-24T18:49:22.254240Z

Period
91.74 min
Inclination
53.1596°
Eccentricity
0.0000511
Mean motion
15.69703028 rev/d
Perigee alt
359.4 km
Apogee alt
360.1 km
Semi-major
6,737.9 km
B*
6.5945e-6
RAAN
326.1501°
Arg perigee
73.5270°
Mean anomaly
286.5804°
Rev number
10,040

§ Raw data

STARLINK-11238 [DTC]1 60928U 24155E   26144.78428535  .00000211  00000+0  65945-5 0  99982 60928  53.1596 326.1501 0000511  73.5270 286.5804 15.69703028100404

JSON: /api/v1/satellites/60928 · /tle

For live sub-satellite position, see the globe view (requires WebGL).

§ Visibility from observer

Set your observer location to see the next 7 days of passes ≥ 10°. The values pass through the URL so the page stays shareable.

No JS? Fill the form by hand. The geolocation button needs JavaScript.